CAPE
0 95 41 105 251 225 128 308 185 357 195 80 337 607 449 399 262 214 318 343 399 1551 1839 2037 2191 2322 2379 2492 2315 2470 2656 3011
0 2 29 37 194 192 157 126 275 307 186 120 212 274 406 328 257 222 441 363 337 1063 1720 2013 2112 2236 2301 2442 2463 2393 2481 2777
0 0 0 11 87 117 172 204 286 286 244 54 318 418 425 328 188 775 855 738 484 636 1618 2027 2191 2270 2424 2478 2597 2636 2722 2735
0 0 0 0 20 161 218 212 186 217 323 320 416 513 538 355 1132 1516 1488 1499 1578 1252 1785 2076 2228 2305 2440 2584 2575 2687 2770 3047
0 0 0 0 0 61 71 103 230 291 287 527 659 620 586 1182 1808 2246 2324 1755 1698 1925 2193 2268 2420 2506 2510 2626 2695 2603 2872 2884
0 0 0 0 0 0 40 102 108 224 309 623 603 638 1452 1782 2235 2551 2848 3013 2866 2763 2628 2549 2642 2772 2805 2706 2634 2897 2770 2921
0 0 0 0 0 0 0 2 70 83 175 415 633 1305 1852 2144 2442 2580 2590 2544 2787 3200 3582 3722 3928 3584 3112 2880 2891 2925 3163 3008
0 0 0 0 0 0 0 0 3 45 189 397 1279 1887 1974 2160 2147 2009 1813 1752 1839 1839 1933 2248 3261 3636 3070 2856 2849 2997 3161 3189
0 0 0 0 0 0 0 0 15 37 494 1426 1595 1409 1491 1668 1660 1486 1332 1217 1172 1026 1107 1288 1660 1954 3092 3618 3369 3384 3505 3576
0 0 0 22 27 2 0 88 141 560 1399 1370 1003 676 608 808 1298 1370 1301 1252 1055 693 684 1308 1511 1908 2077 2237 2731 3748 4505 4542
0 0 161 186 291 261 226 371 438 876 1197 587 299 263 524 910 1102 1072 941 797 582 507 625 797 855 1412 1622 1800 1862 1905 1898 2144
18 24 29 76 342 123 460 623 638 1113 646 369 439 711 468 719 786 732 670 554 389 311 260 208 190 141 171 392 566 863 1059 1071
102 97 386 312 46 129 668 503 911 1043 509 481 596 562 386 542 558 570 540 500 413 370 349 327 266 153 101 104 155 179 347 771
165 186 269 9 121 523 317 740 931 705 494 269 388 342 401 487 491 469 473 467 390 274 187 37 43 8 0 9 0 7 78 203
262 340 41 15 196 187 291 314 357 286 306 540 557 522 492 419 437 485 445 386 303 161 34 0 0 0 8 2 0 0 0 1
245 28 40 0 70 181 219 413 573 538 578 585 598 560 468 382 375 421 372 289 157 77 29 0 6 0 0 0 0 0 0 0
108 5 0 0 77 187 269 390 614 647 633 540 515 439 350 282 259 222 164 88 33 11 8 0 0 0 0 0 0 0 0 0
172 19 68 16 47 160 274 349 533 663 512 375 253 232 204 171 159 120 60 49 49 26 2 0 0 0 0 0 0 4 7 3
22 0 0 1 50 134 264 341 363 335 257 210 189 161 116 51 30 9 0 0 0 0 0 0 0 0 0 0 0 0 1 15
CIN
-16 -144 -194 -134 -81 -72 -64 -34 -47 -3 -77 -114 -58 -22 -38 -36 -89 -96 -56 -54 -110 -73 -76 -104 -111 -143 -97 -93 -123 -101 -84 -72
-0 -159 -246 -224 -71 -97 -83 -56 -28 -10 -65 -71 -80 -59 -35 -41 -55 -68 -61 -74 -93 -66 -70 -95 -97 -110 -107 -76 -91 -75 -54 -68
-0 -0 -0 -289 -154 -134 -72 -58 -7 -3 -0 -119 -47 -28 -20 -57 -93 -33 -45 -57 -81 -92 -93 -79 -96 -96 -114 -93 -81 -77 -61 -49
-0 -0 -0 -13 -187 -96 -66 -56 -74 -30 -0 -23 -8 -12 -15 -67 -42 -53 -63 -39 -59 -88 -96 -87 -94 -72 -72 -74 -59 -60 -49 -74
-0 -0 -0 -0 -24 -129 -84 -48 -10 -27 -0 -29 -22 -35 -45 -42 -42 -50 -47 -63 -44 -65 -81 -83 -80 -74 -65 -70 -69 -48 -77 -90
-0 -0 -0 -0 -0 -0 -86 -62 -70 -16 -2 -30 -26 -36 -45 -48 -50 -49 -67 -71 -50 -69 -105 -140 -124 -111 -104 -87 -65 -86 -64 -74
-0 -0 -0 -0 -0 -0 -30 -38 -62 -22 -10 -18 -27 -30 -51 -61 -59 -66 -77 -88 -123 -79 -52 -64 -127 -153 -176 -130 -119 -95 -118 -93
-0 -0 -0 -0 -0 -0 -0 -0 -183 -89 -9 -61 -79 -96 -88 -86 -98 -123 -162 -218 -242 -263 -277 -252 -140 -147 -213 -218 -180 -163 -138 -126
-0 -0 -0 -0 -0 -0 -0 -0 -191 -76 -10 -78 -110 -132 -147 -146 -157 -185 -193 -117 -287 -396 -439 -368 -123 -169 -140 -94 -144 -155 -129 -107
-0 -0 -0 -21 -121 -95 -0 -93 -81 -61 -75 -91 -172 -267 -312 -263 -136 -128 -106 -97 -127 -280 -302 -53 -83 -80 -103 -121 -108 -78 -28 -19
-0 -0 -24 -51 -55 -24 -18 -28 -119 -65 -140 -259 -368 -258 -222 -151 -134 -107 -114 -102 -113 -101 -74 -45 -56 -93 -85 -83 -64 -67 -58 -113
-14 -0 -0 -0 -53 -144 -46 -1 -144 -91 -222 -304 -201 -112 -152 -155 -127 -102 -106 -79 -90 -76 -57 -54 -37 -40 -597 -154 -151 -136 -388 -347
-7 -0 -32 -128 -226 -206 -21 -34 -123 -136 -208 -225 -170 -144 -167 -145 -121 -107 -98 -89 -85 -84 -70 -60 -42 -45 -47 -656 -689 -727 -598 -399
-1 -1 -3 -63 -191 -112 -230 -234 -157 -191 -257 -259 -230 -176 -127 -148 -121 -106 -117 -102 -86 -67 -48 -130 -48 -99 -0 -828 -0 -732 -738 -607
-146 -148 -7 -294 -191 -168 -91 -355 -185 -162 -227 -210 -155 -144 -131 -103 -128 -105 -95 -72 -66 -39 -42 -0 -0 -0 -54 -45 -0 -0 -0 -78
-218 -112 -23 -0 -240 -145 -137 -236 -193 -171 -176 -145 -118 -107 -98 -79 -113 -81 -77 -75 -50 -23 -38 -0 -71 -0 -0 -0 -0 -0 -0 -0
-454 -335 -0 -0 -237 -167 -129 -224 -150 -137 -109 -112 -99 -108 -107 -69 -61 -47 -32 -48 -73 -72 -65 -0 -0 -0 -0 -0 -0 -0 -0 -0
-159 -550 -424 -54 -239 -184 -135 -207 -151 -95 -110 -125 -113 -83 -68 -45 -59 -51 -58 -98 -76 -69 -22 -0 -0 -0 -0 -0 -0 -0 -0 -0
-411 -0 -0 -61 -150 -175 -132 -126 -98 -88 -55 -125 -47 -75 -43 -132 -95 -80 -0 -0 -0 -0 -0 -0 -0 -0 -0 -0 -0 -0 -0 -0
Wind_Speed
nan nan nan 15 7 12 10 12 5 16 17 nan 15 10 11 14 11 18 19 18 18 18 19 19 21 24 29 26 22 21 19 16
nan nan nan nan 15 14 8 7 8 16 13 9 17 24 20 13 10 18 21 21 23 19 22 23 23 24 27 29 22 16 15 17
nan nan nan nan nan 11 17 14 6 6 15 nan 22 19 26 15 10 18 19 21 24 20 23 24 23 24 22 19 19 17 18 18
nan nan nan nan nan 8 14 13 13 17 17 34 31 26 25 17 12 20 20 23 25 25 23 20 21 19 18 15 18 22 22 21
nan nan nan nan nan nan nan 6 13 10 10 31 31 33 23 17 17 22 24 23 25 24 22 22 14 12 14 13 17 22 26 25
nan nan nan nan nan nan nan 16 11 13 9 32 31 29 23 18 19 21 22 21 22 24 28 23 12 12 7 11 19 20 22 24
nan nan nan nan nan nan nan nan nan nan 12 37 29 25 22 15 16 23 26 29 29 27 28 24 22 18 11 11 17 20 24 25
nan nan nan nan nan nan nan nan nan nan 19 33 31 27 24 20 21 24 27 27 33 34 38 40 28 26 21 12 16 18 19 20
nan nan nan nan nan nan nan nan nan nan 26 27 30 31 28 26 24 22 27 28 34 33 41 37 38 34 28 24 15 19 16 17
nan nan nan nan nan nan nan nan 22 27 27 26 29 32 35 34 29 26 23 28 34 37 38 35 38 29 16 18 19 19 18 19
nan nan 27 26 21 21 19 25 20 23 31 29 29 32 36 32 30 29 25 23 25 27 28 28 23 15 19 22 25 25 23 20
nan nan nan nan 26 17 15 19 23 27 29 32 24 22 24 25 28 29 28 28 27 25 27 30 24 27 29 28 31 28 25 20
20 nan 31 31 nan 14 12 24 22 30 32 32 24 33 31 29 24 29 33 32 29 31 30 31 32 32 32 32 33 27 24 24
23 19 23 nan 20 18 31 30 30 30 27 31 40 36 34 33 30 31 31 32 34 35 36 nan nan nan nan nan nan nan nan 25
42 42 nan nan 32 34 31 36 36 35 35 33 35 35 35 35 36 36 34 35 37 38 nan nan nan nan nan nan nan nan nan nan
35 nan nan nan nan 37 34 36 38 36 32 32 33 37 40 41 41 40 39 38 36 nan nan nan nan nan nan nan nan nan nan nan
56 nan nan nan nan 43 38 40 41 40 39 36 34 35 37 38 37 37 34 nan nan nan nan nan nan nan nan nan nan nan nan nan
44 nan nan nan nan 37 37 40 40 39 38 36 34 34 33 36 37 36 nan nan nan nan nan nan nan nan nan nan nan nan nan nan
nan nan nan nan nan 41 43 45 43 43 40 38 37 38 36 nan nan nan nan nan nan nan nan nan nan nan nan nan nan nan nan nan
Wind_Direction
nan nan nan 263 231 209 181 272 234 282 305 nan 332 348 292 284 255 232 238 258 287 318 327 337 351 358 2 354 351 354 3 2
nan nan nan nan 230 264 261 203 259 293 302 271 318 315 322 320 263 238 241 252 281 305 313 325 343 345 351 358 359 355 4 359
nan nan nan nan nan 247 208 243 221 321 299 nan 289 299 318 318 261 240 244 261 277 288 297 317 332 335 344 1 5 4 358 2
nan nan nan nan nan 273 253 282 261 199 241 270 290 294 304 310 254 244 245 258 265 272 286 305 314 325 331 354 11 14 10 0
nan nan nan nan nan nan nan 232 252 266 279 270 286 294 305 314 263 257 259 264 263 264 276 286 302 300 315 355 5 355 357 0
nan nan nan nan nan nan nan 263 267 279 227 278 288 291 310 318 262 264 276 269 267 262 258 267 256 279 289 342 343 349 356 358
nan nan nan nan nan nan nan nan nan nan 342 261 268 277 289 286 262 257 264 261 257 249 246 237 244 252 262 316 335 341 342 347
nan nan nan nan nan nan nan nan nan nan 232 256 253 262 279 273 282 256 251 259 250 246 238 232 219 240 246 272 340 346 344 343
nan nan nan nan nan nan nan nan nan nan 249 273 265 262 267 273 273 269 249 250 248 249 251 219 217 226 224 239 279 295 310 321
nan nan nan nan nan nan nan nan 256 251 272 270 267 255 254 256 265 260 263 256 250 244 251 229 217 212 229 247 245 263 276 288
nan nan 240 246 259 276 286 271 258 271 272 279 281 272 252 250 248 250 254 261 262 259 258 267 272 268 246 258 262 263 264 270
nan nan nan nan 262 245 258 258 258 270 278 288 298 259 250 256 243 242 245 250 256 258 249 247 243 241 246 256 264 270 271 267
228 nan 242 234 nan 235 256 242 271 279 279 280 256 252 258 253 247 247 245 247 246 251 254 246 239 239 244 251 258 274 284 276
219 228 240 nan 231 234 242 260 276 291 275 263 254 253 249 247 247 249 246 245 243 247 247 nan nan nan nan nan nan nan nan 281
212 230 nan nan 243 251 260 252 263 275 274 271 264 256 247 248 250 244 243 243 241 245 nan nan nan nan nan nan nan nan nan nan
244 nan nan nan nan 258 256 259 262 267 267 273 263 249 244 242 240 239 242 248 251 nan nan nan nan nan nan nan nan nan nan nan
243 nan nan nan nan 263 255 257 259 258 257 258 254 245 243 245 244 244 245 nan nan nan nan nan nan nan nan nan nan nan nan nan
240 nan nan nan nan 254 250 253 260 262 261 254 247 244 243 249 248 248 nan nan nan nan nan nan nan nan nan nan nan nan nan nan
nan nan nan nan nan 246 249 252 253 256 259 262 246 243 244 nan nan nan nan nan nan nan nan nan nan nan nan nan nan nan nan nan